Regional Weather Roundup
Issued by NWS Northern Indiana

Home | Current Version | Previous Version | Graphics & Text | Print | Product List | Glossary On
Versions: 1 2 3 4 5 6 7 8 9 10 11 12 13 14 15 16 17 18 19 20 21 22 23 24 25 26 27 28 29 30 31 32 33 34 35 36 37 38 39 40 41 42 43 44 45 46 47 48 49 50
000
ASUS43 KIWX 290510
RWRIWX

KIWX WEATHER ROUNDUP
NATIONAL WEATHER SERVICE NORTHERN INDIANA
100 AM EDT FRI AUG 29 2014

NOTE: "FAIR" INDICATES FEW OR NO CLOUDS BELOW 12,000 FEET WITH NO
SIGNIFICANT WEATHER AND/OR OBSTRUCTIONS TO VISIBILITY.

* THESE STATIONS ARE NOT UNDER NWS QUALITY CONTROL. THEY ALSO MAY NOT
  REPORT WEATHER SUCH AS PRECIPITATION OR FOG.

INZ001>027-290600-
NORTHERN INDIANA

CITY           SKY/WX    TMP DP  RH WIND       PRES   REMARKS
GARY*          LGT RAIN  72  67  84 SE3       30.05F
VALPARAISO     CLOUDY    70  64  81 SE9       30.07S
MICHIGAN CITY* CLOUDY    70  61  73 CALM      30.06F
LAPORTE*       CLOUDY    69  63  81 SE5       30.08S
KNOX*          CLOUDY    68  62  82 SE5       30.07S
SOUTH BEND     CLOUDY    73  61  65 SE10      30.08S
GOSHEN         MOCLDY    69  61  75 SE8       30.09S
MONTICELLO*    MOCLDY    69  65  87 CALM      30.06S
LOGANSPORT*    PTCLDY    64  61  88 E6        30.08S
ROCHESTER*     MOCLDY    70  64  83 SE7       30.08F
WARSAW*        MOCLDY    64  63  94 E3        30.09F
ANGOLA*        CLEAR     63  57  82 SE7       30.12S
FORT WAYNE     PTCLDY    64  60  87 E6        30.11S
HUNTINGTON*    PTCLDY    66  62  87 E5        30.09F
PERU/GRISSOM   PTCLDY    67  67 100 E6        30.08S
MARION*        CLEAR     66  60  83 SE7       30.10F

$$
INZ028>050-290600-
CENTRAL INDIANA

CITY           SKY/WX    TMP DP  RH WIND       PRES   REMARKS
LAFAYETTE      CLOUDY    70  65  84 E6        30.05F
KOKOMO*        PTCLDY    66  61  82 SE7       30.08F
MUNCIE*        PTCLDY    66  61  84 SE7       30.09S
INDIANAPOLIS   MOCLDY    73  63  70 E9        30.05F

$$
MIZ043>046-050>051-056>058-064>065-071>073-077>080-290600-
SOUTHWEST LOWER MICHIGAN

CITY           SKY/WX    TMP DP  RH WIND       PRES   REMARKS
BATTLE CREEK   MOCLDY    65  54  67 SE9       30.12S
BENTON HARBOR  CLOUDY    66  59  78 E8        30.07S
COLDWATER*     PTCLDY    64  58  78 SE7       30.12S
HILLSDALE*     CLEAR     62  59  90 SE5       30.14S
HOLLAND        MOCLDY    64  53  67 E7        30.09F
GRAND RAPIDS   MOCLDY    62  55  77 E7        30.11S
KALAMAZOO      MOCLDY    65  54  67 CALM      30.11S
STURGIS*         N/A     64  61  88 SE7       30.10S
THREE RIVERS*  FAIR      66  59  77 E3        30.11R

$$
OHZ001>008-015>018-024>025-290600-
NORTHWEST OHIO

CITY           SKY/WX    TMP DP  RH WIND       PRES   REMARKS
WAUSEON*       FAIR      59  55  88 SE5       30.13F
DEFIANCE       CLEAR     62  56  80 E5        30.12F
FINDLAY        CLEAR     61  55  81 E7        30.13S
TOLEDO EXPRESS CLEAR     58  54  86 CALM      30.13S
TOLEDO METCALF CLEAR     58  51  78 E6        30.14F
LIMA           CLEAR     62  57  83 E9        30.12F

$$
&&



USA.gov is the U.S. government's official web portal to all federal, state and local government web resources and services.